Terminal Aerodrome Forecast
Issued by NWS

Home | Current Version | Previous Version | Text Only | Print | Product List | Glossary On
Versions: 1 2 3 4 5 6 7 8 9 10 11 12 13 14 15 16 17 18 19 20 21 22 23 24 25 26 27 28 29 30 31 32 33 34
000
FTAK31 PANC 301601 AAB
TAFAGK
TAF AMD
PAGK 301601Z 3016/3112 31005KT P6SM BKN025
     FM301800 35004KT P6SM SCT060 SCT100
     FM310000 VRB03KT P6SM SCT150=

USA.gov is the U.S. government's official web portal to all federal, state and local government web resources and services.